Time,TemperatureF,DewpointF,PressureIn,WindDirection,WindDirectionDegrees,WindSpeedMPH,WindSpeedGustMPH,Humidity,HourlyPrecipIn,Conditions,Clouds,dailyrainin,SolarRadiationWatts/m^2,SoftwareType,DateUTC
2013-02-18 00:00:00,27.6,18.8,29.57,East,100,5.0,6.0,69,0.00,,---,0.00,0.00,VWS V14.00,2013-02-18 06:00:00,
2013-02-18 00:05:00,27.6,18.8,29.57,ESE,119,5.0,5.0,69,0.00,,---,0.00,0.00,VWS V14.00,2013-02-18 06:05:00,
2013-02-18 00:10:00,27.6,18.8,29.57,ESE,103,7.0,7.0,69,0.00,,---,0.00,0.00,VWS V14.00,2013-02-18 06:10:00,
2013-02-18 00:15:00,27.6,18.8,29.56,ESE,119,7.0,7.0,69,0.00,,---,0.00,0.00,VWS V14.00,2013-02-18 06:15:00,
2013-02-18 00:20:00,27.6,18.8,29.56,East,92,6.0,7.0,69,0.00,,---,0.00,0.00,VWS V14.00,2013-02-18 06:20:00,
2013-02-18 00:25:00,27.6,18.8,29.56,SE,138,4.0,8.0,69,0.00,,---,0.00,0.00,VWS V14.00,2013-02-18 06:25:00,
2013-02-18 00:30:00,27.6,18.8,29.56,ESE,117,2.0,8.0,69,0.00,,---,0.00,0.00,VWS V14.00,2013-02-18 06:30:00,
2013-02-18 00:35:00,27.6,18.8,29.56,SE,130,10.0,10.0,69,0.00,,---,0.00,0.00,VWS V14.00,2013-02-18 06:35:00,
2013-02-18 00:40:00,27.5,19.4,29.56,ESE,114,5.0,7.0,71,0.00,,---,0.00,0.00,VWS V14.00,2013-02-18 06:40:00,
2013-02-18 00:45:00,27.5,19.4,29.55,ESE,116,5.0,5.0,71,0.00,,---,0.00,0.00,VWS V14.00,2013-02-18 06:45:00,
2013-02-18 00:50:00,27.5,19.4,29.55,SE,124,3.0,3.0,71,0.00,,---,0.00,0.00,VWS V14.00,2013-02-18 06:50:00,
2013-02-18 00:55:00,27.5,19.4,29.55,ESE,120,5.0,7.0,71,0.00,,---,0.00,0.00,VWS V14.00,2013-02-18 06:55:00,
2013-02-18 01:00:00,27.5,19.4,29.55,ESE,104,5.0,5.0,71,0.00,,---,0.00,0.00,VWS V14.00,2013-02-18 07:00:00,
2013-02-18 01:05:00,27.5,19.4,29.55,ESE,116,6.0,6.0,71,0.00,,---,0.00,0.00,VWS V14.00,2013-02-18 07:05:00,
2013-02-18 01:10:00,27.5,19.4,29.55,ESE,109,5.0,10.0,71,0.00,,---,0.00,0.00,VWS V14.00,2013-02-18 07:10:00,
2013-02-18 01:15:00,27.5,19.4,29.54,ESE,114,5.0,5.0,71,0.00,,---,0.00,0.00,VWS V14.00,2013-02-18 07:15:00,
2013-02-18 01:20:00,27.5,19.4,29.54,East,99,7.0,7.0,71,0.00,,---,0.00,0.00,VWS V14.00,2013-02-18 07:20:00,
2013-02-18 01:25:00,27.5,19.4,29.54,ESE,112,6.0,6.0,71,0.00,,---,0.00,0.00,VWS V14.00,2013-02-18 07:25:00,
2013-02-18 01:30:00,27.5,19.7,29.52,ESE,106,8.0,8.0,72,0.00,,---,0.00,0.00,VWS V14.00,2013-02-18 07:30:00,
2013-02-18 01:35:00,27.5,19.7,29.52,SE,124,5.0,7.0,72,0.00,,---,0.00,0.00,VWS V14.00,2013-02-18 07:35:00,
2013-02-18 01:40:00,27.5,19.7,29.52,SE,126,5.0,5.0,72,0.00,,---,0.00,0.00,VWS V14.00,2013-02-18 07:40:00,
2013-02-18 01:45:00,27.5,19.7,29.52,ESE,110,3.0,10.0,72,0.00,,---,0.00,0.00,VWS V14.00,2013-02-18 07:45:00,
2013-02-18 01:50:00,27.5,19.7,29.52,East,96,6.0,6.0,72,0.00,,---,0.00,0.00,VWS V14.00,2013-02-18 07:50:00,
2013-02-18 01:55:00,27.5,19.7,29.52,SE,141,7.0,7.0,72,0.00,,---,0.00,0.00,VWS V14.00,2013-02-18 07:55:00,
2013-02-18 02:00:00,27.6,19.8,29.50,SE,127,5.0,5.0,72,0.00,,---,0.00,0.00,VWS V14.00,2013-02-18 08:00:00,
2013-02-18 02:05:00,27.8,20.0,29.50,SE,126,7.0,7.0,72,0.00,,---,0.00,0.00,VWS V14.00,2013-02-18 08:05:00,
2013-02-18 02:10:00,27.8,20.0,29.50,SSE,165,2.0,4.0,72,0.00,,---,0.00,0.00,VWS V14.00,2013-02-18 08:10:00,
2013-02-18 02:15:00,27.8,20.0,29.50,ESE,113,2.0,4.0,72,0.00,,---,0.00,0.00,VWS V14.00,2013-02-18 08:15:00,
2013-02-18 02:20:00,27.9,20.1,29.50,ESE,106,3.0,5.0,72,0.00,,---,0.00,0.00,VWS V14.00,2013-02-18 08:20:00,
2013-02-18 02:25:00,27.9,20.1,29.50,SE,143,5.0,5.0,72,0.00,,---,0.00,0.00,VWS V14.00,2013-02-18 08:25:00,
2013-02-18 02:30:00,28.1,20.2,29.50,SSE,151,6.0,6.0,72,0.00,,---,0.00,0.00,VWS V14.00,2013-02-18 08:30:00,
2013-02-18 02:35:00,28.1,20.2,29.50,ESE,117,4.0,4.0,72,0.00,,---,0.00,0.00,VWS V14.00,2013-02-18 08:35:00,
2013-02-18 02:40:00,28.2,20.4,29.50,SSE,147,2.0,2.0,72,0.00,,---,0.00,0.00,VWS V14.00,2013-02-18 08:40:00,
2013-02-18 02:45:00,28.2,20.4,29.50,SE,133,6.0,6.0,72,0.00,,---,0.00,0.00,VWS V14.00,2013-02-18 08:45:00,
2013-02-18 02:50:00,28.2,20.4,29.50,SSE,150,2.0,4.0,72,0.00,,---,0.00,0.00,VWS V14.00,2013-02-18 08:50:00,
2013-02-18 02:55:00,28.2,20.4,29.50,East,97,7.0,7.0,72,0.00,,---,0.00,0.00,VWS V14.00,2013-02-18 08:55:00,
2013-02-18 03:00:00,28.2,20.4,29.49,SE,130,3.0,3.0,72,0.00,,---,0.00,0.00,VWS V14.00,2013-02-18 09:00:00,
2013-02-18 03:05:00,28.2,20.4,29.49,SE,131,3.0,3.0,72,0.00,,---,0.00,0.00,VWS V14.00,2013-02-18 09:05:00,
2013-02-18 03:10:00,28.2,20.4,29.49,SE,138,2.0,4.0,72,0.00,,---,0.00,0.00,VWS V14.00,2013-02-18 09:10:00,
2013-02-18 03:15:00,28.1,20.2,29.49,SE,136,1.0,2.0,72,0.00,,---,0.00,0.00,VWS V14.00,2013-02-18 09:15:00,
2013-02-18 03:20:00,28.1,20.2,29.49,SE,134,3.0,3.0,72,0.00,,---,0.00,0.00,VWS V14.00,2013-02-18 09:20:00,
2013-02-18 03:25:00,28.1,20.6,29.49,SE,136,3.0,3.0,73,0.00,,---,0.00,0.00,VWS V14.00,2013-02-18 09:25:00,
2013-02-18 03:30:00,28.1,20.6,29.49,SE,134,8.0,8.0,73,0.00,,---,0.00,0.00,VWS V14.00,2013-02-18 09:30:00,
2013-02-18 03:35:00,28.1,20.6,29.49,ESE,117,3.0,3.0,73,0.00,,---,0.00,0.00,VWS V14.00,2013-02-18 09:35:00,
2013-02-18 03:40:00,28.2,20.7,29.49,ESE,121,3.0,3.0,73,0.00,,---,0.00,0.00,VWS V14.00,2013-02-18 09:40:00,
2013-02-18 03:45:00,28.2,20.7,29.47,SE,137,5.0,7.0,73,0.00,,---,0.00,0.00,VWS V14.00,2013-02-18 09:45:00,
2013-02-18 03:50:00,28.2,20.7,29.47,SE,134,1.0,2.0,73,0.00,,---,0.00,0.00,VWS V14.00,2013-02-18 09:50:00,
2013-02-18 03:55:00,28.2,20.7,29.47,SE,126,5.0,5.0,73,0.00,,---,0.00,0.00,VWS V14.00,2013-02-18 09:55:00,
2013-02-18 04:00:00,28.4,20.9,29.47,SE,124,3.0,3.0,73,0.00,,---,0.00,0.00,VWS V14.00,2013-02-18 10:00:00,
2013-02-18 04:05:00,28.5,21.3,29.47,SE,145,1.0,8.0,74,0.00,,---,0.00,0.00,VWS V14.00,2013-02-18 10:05:00,
2013-02-18 04:10:00,28.7,21.5,29.47,SE,140,1.0,2.0,74,0.00,,---,0.00,0.00,VWS V14.00,2013-02-18 10:10:00,
2013-02-18 04:15:00,28.7,21.5,29.46,ESE,113,6.0,6.0,74,0.00,,---,0.00,0.00,VWS V14.00,2013-02-18 10:15:00,
2013-02-18 04:20:00,28.8,21.6,29.46,ESE,104,6.0,6.0,74,0.00,,---,0.00,0.00,VWS V14.00,2013-02-18 10:20:00,
2013-02-18 04:25:00,28.8,21.6,29.46,SE,137,4.0,4.0,74,0.00,,---,0.00,0.00,VWS V14.00,2013-02-18 10:25:00,
2013-02-18 04:30:00,28.8,21.6,29.45,SSE,154,2.0,2.0,74,0.00,,---,0.00,0.00,VWS V14.00,2013-02-18 10:30:00,
2013-02-18 04:35:00,29.1,21.9,29.45,SSE,165,1.0,2.0,74,0.00,,---,0.00,0.00,VWS V14.00,2013-02-18 10:35:00,
2013-02-18 04:40:00,29.1,21.9,29.45,SE,130,1.0,1.0,74,0.00,,---,0.00,0.00,VWS V14.00,2013-02-18 10:40:00,
2013-02-18 04:45:00,29.1,21.9,29.46,SSE,147,2.0,2.0,74,0.00,,---,0.00,0.00,VWS V14.00,2013-02-18 10:45:00,
2013-02-18 04:50:00,29.1,21.9,29.46,ESE,117,2.0,2.0,74,0.00,,---,0.00,0.00,VWS V14.00,2013-02-18 10:50:00,
2013-02-18 04:55:00,29.1,21.9,29.46,South,171,1.0,2.0,74,0.00,,---,0.00,0.00,VWS V14.00,2013-02-18 10:55:00,
2013-02-18 05:00:00,29.1,21.9,29.46,SE,137,1.0,1.0,74,0.00,,---,0.00,0.00,VWS V14.00,2013-02-18 11:00:00,
2013-02-18 05:05:00,29.3,22.1,29.46,ESE,120,1.0,1.0,74,0.00,,---,0.00,0.00,VWS V14.00,2013-02-18 11:05:00,
2013-02-18 05:10:00,29.3,22.4,29.46,ESE,119,0.0,2.0,75,0.00,,---,0.00,0.00,VWS V14.00,2013-02-18 11:10:00,
2013-02-18 05:15:00,29.3,22.4,29.46,SSW,192,2.0,2.0,75,0.00,,---,0.00,0.00,VWS V14.00,2013-02-18 11:15:00,
2013-02-18 05:20:00,29.3,22.4,29.46,SE,140,1.0,1.0,75,0.00,,---,0.00,0.00,VWS V14.00,2013-02-18 11:20:00,
2013-02-18 05:25:00,29.4,22.5,29.46,SSW,206,1.0,1.0,75,0.00,,---,0.00,0.00,VWS V14.00,2013-02-18 11:25:00,
2013-02-18 05:30:00,29.4,22.5,29.46,SE,145,1.0,1.0,75,0.00,,---,0.00,0.00,VWS V14.00,2013-02-18 11:30:00,
2013-02-18 05:35:00,29.4,22.5,29.46,SE,127,2.0,2.0,75,0.00,,---,0.00,0.00,VWS V14.00,2013-02-18 11:35:00,
2013-02-18 05:40:00,29.4,22.5,29.46,ESE,121,2.0,2.0,75,0.00,,---,0.00,0.00,VWS V14.00,2013-02-18 11:40:00,
2013-02-18 05:45:00,29.4,22.5,29.45,ESE,112,2.0,2.0,75,0.00,,---,0.00,0.00,VWS V14.00,2013-02-18 11:45:00,
2013-02-18 05:50:00,29.4,22.5,29.45,ESE,120,2.0,2.0,75,0.00,,---,0.00,0.00,VWS V14.00,2013-02-18 11:50:00,
2013-02-18 05:55:00,29.4,22.5,29.45,SE,138,1.0,1.0,75,0.00,,---,0.00,0.00,VWS V14.00,2013-02-18 11:55:00,
2013-02-18 06:00:00,29.5,22.6,29.45,SE,138,1.0,1.0,75,0.00,,---,0.00,0.00,VWS V14.00,2013-02-18 12:00:00,
2013-02-18 06:05:00,29.7,23.4,29.45,SE,138,1.0,1.0,77,0.00,,---,0.00,0.00,VWS V14.00,2013-02-18 12:05:00,
2013-02-18 06:10:00,29.7,23.4,29.45,SE,138,0.0,0.0,77,0.00,,---,0.00,0.00,VWS V14.00,2013-02-18 12:10:00,
2013-02-18 06:15:00,29.7,23.4,29.46,SE,138,1.0,1.0,77,0.00,,---,0.00,0.00,VWS V14.00,2013-02-18 12:15:00,
2013-02-18 06:20:00,29.5,23.2,29.46,SE,138,1.0,1.0,77,0.00,,---,0.00,0.00,VWS V14.00,2013-02-18 12:20:00,
2013-02-18 06:25:00,29.4,23.1,29.46,SE,138,1.0,1.0,77,0.00,,---,0.00,0.00,VWS V14.00,2013-02-18 12:25:00,
2013-02-18 06:30:00,29.3,23.0,29.45,SE,137,1.0,2.0,77,0.00,,---,0.00,0.00,VWS V14.00,2013-02-18 12:30:00,
2013-02-18 06:35:00,29.3,23.0,29.45,South,171,0.0,2.0,77,0.00,,---,0.00,0.00,VWS V14.00,2013-02-18 12:35:00,
2013-02-18 06:40:00,29.1,22.8,29.45,South,171,0.0,0.0,77,0.00,,---,0.00,0.00,VWS V14.00,2013-02-18 12:40:00,
2013-02-18 06:45:00,29.1,22.5,29.45,South,172,1.0,1.0,76,0.00,,---,0.00,0.00,VWS V14.00,2013-02-18 12:45:00,
2013-02-18 06:50:00,29.1,22.8,29.45,SW,223,1.0,1.0,77,0.00,,---,0.00,0.00,VWS V14.00,2013-02-18 12:50:00,
2013-02-18 06:55:00,28.7,22.4,29.45,SE,138,1.0,1.0,77,0.00,,---,0.00,0.00,VWS V14.00,2013-02-18 12:55:00,
2013-02-18 07:00:00,28.5,22.2,29.46,SSE,150,0.0,0.0,77,0.00,,---,0.00,0.00,VWS V14.00,2013-02-18 13:00:00,
2013-02-18 07:05:00,28.5,22.2,29.46,SSE,150,1.0,1.0,77,0.00,,---,0.00,0.00,VWS V14.00,2013-02-18 13:05:00,
2013-02-18 07:10:00,28.4,22.4,29.46,NW,316,1.0,1.0,78,0.00,,---,0.00,0.00,VWS V14.00,2013-02-18 13:10:00,
2013-02-18 07:15:00,28.4,22.4,29.46,ENE,72,1.0,1.0,78,0.00,,---,0.00,0.00,VWS V14.00,2013-02-18 13:15:00,
2013-02-18 07:20:00,28.4,22.4,29.46,NW,308,3.0,3.0,78,0.00,,---,0.00,0.00,VWS V14.00,2013-02-18 13:20:00,
2013-02-18 07:25:00,28.7,22.7,29.46,NW,305,0.0,0.0,78,0.00,,---,0.00,0.00,VWS V14.00,2013-02-18 13:25:00,
2013-02-18 07:30:00,28.7,23.3,29.46,WNW,292,0.0,0.0,80,0.00,,---,0.00,0.00,VWS V14.00,2013-02-18 13:30:00,
2013-02-18 07:35:00,28.8,23.4,29.46,South,172,0.0,1.0,80,0.00,,---,0.00,0.00,VWS V14.00,2013-02-18 13:35:00,
2013-02-18 07:40:00,28.8,23.4,29.46,South,172,0.0,0.0,80,0.00,,---,0.00,7.00,VWS V14.00,2013-02-18 13:40:00,
2013-02-18 07:45:00,29.0,23.6,29.46,South,184,0.0,0.0,80,0.00,,---,0.00,9.00,VWS V14.00,2013-02-18 13:45:00,
2013-02-18 07:50:00,29.0,23.6,29.46,South,184,1.0,1.0,80,0.00,,---,0.00,9.00,VWS V14.00,2013-02-18 13:50:00,
2013-02-18 07:55:00,29.0,23.6,29.46,SW,219,1.0,1.0,80,0.00,,---,0.00,9.00,VWS V14.00,2013-02-18 13:55:00,
2013-02-18 08:00:00,29.4,24.0,29.46,SSW,212,0.0,0.0,80,0.00,,---,0.00,9.00,VWS V14.00,2013-02-18 14:00:00,
2013-02-18 08:05:00,29.4,24.0,29.46,SSW,212,0.0,0.0,80,0.00,,---,0.00,14.00,VWS V14.00,2013-02-18 14:05:00,
2013-02-18 08:10:00,29.4,24.0,29.46,SW,226,1.0,1.0,80,0.00,,---,0.00,14.00,VWS V14.00,2013-02-18 14:10:00,
2013-02-18 08:15:00,29.7,24.3,29.47,SW,223,1.0,1.0,80,0.00,,---,0.00,14.00,VWS V14.00,2013-02-18 14:15:00,
2013-02-18 08:20:00,29.8,24.4,29.47,SW,230,2.0,2.0,80,0.00,,---,0.00,14.00,VWS V14.00,2013-02-18 14:20:00,
2013-02-18 08:25:00,29.8,24.7,29.47,SSW,213,1.0,1.0,81,0.00,,---,0.00,21.00,VWS V14.00,2013-02-18 14:25:00,
2013-02-18 08:30:00,29.8,24.7,29.47,SSW,212,2.0,2.0,81,0.00,,---,0.00,30.00,VWS V14.00,2013-02-18 14:30:00,
2013-02-18 08:35:00,30.3,25.2,29.47,SSW,209,2.0,2.0,81,0.00,,---,0.00,33.00,VWS V14.00,2013-02-18 14:35:00,
2013-02-18 08:40:00,30.3,25.2,29.47,SW,226,2.0,2.0,81,0.00,,---,0.00,33.00,VWS V14.00,2013-02-18 14:40:00,
2013-02-18 08:45:00,30.6,25.5,29.48,WSW,239,1.0,1.0,81,0.00,,---,0.00,33.00,VWS V14.00,2013-02-18 14:45:00,
2013-02-18 08:50:00,30.7,25.6,29.48,SW,236,1.0,1.0,81,0.00,,---,0.00,46.00,VWS V14.00,2013-02-18 14:50:00,
2013-02-18 08:55:00,30.7,25.6,29.48,WSW,250,1.0,1.0,81,0.00,,---,0.00,46.00,VWS V14.00,2013-02-18 14:55:00,
2013-02-18 09:00:00,30.7,25.6,29.48,West,260,4.0,4.0,81,0.00,,---,0.00,46.00,VWS V14.00,2013-02-18 15:00:00,
2013-02-18 09:05:00,31.0,25.9,29.48,SW,227,5.0,5.0,81,0.00,,---,0.00,46.00,VWS V14.00,2013-02-18 15:05:00,
2013-02-18 09:10:00,31.2,26.1,29.48,West,275,2.0,2.0,81,0.00,,---,0.00,93.00,VWS V14.00,2013-02-18 15:10:00,
2013-02-18 09:15:00,31.3,26.2,29.49,WSW,247,2.0,2.0,81,0.00,,---,0.00,93.00,VWS V14.00,2013-02-18 15:15:00,
2013-02-18 09:20:00,31.3,26.2,29.49,WSW,250,1.0,1.0,81,0.00,,---,0.00,91.00,VWS V14.00,2013-02-18 15:20:00,
2013-02-18 09:25:00,31.5,26.4,29.49,WSW,239,1.0,1.0,81,0.00,,---,0.00,91.00,VWS V14.00,2013-02-18 15:25:00,
2013-02-18 09:30:00,31.6,26.5,29.48,WNW,288,1.0,1.0,81,0.00,,---,0.00,91.00,VWS V14.00,2013-02-18 15:30:00,
2013-02-18 09:35:00,31.8,26.6,29.48,WSW,247,2.0,2.0,81,0.00,,---,0.00,91.00,VWS V14.00,2013-02-18 15:35:00,
2013-02-18 09:40:00,31.8,26.6,29.48,SW,233,3.0,6.0,81,0.00,,---,0.00,91.00,VWS V14.00,2013-02-18 15:40:00,
2013-02-18 09:45:00,31.8,26.4,29.48,WSW,241,0.0,0.0,80,0.00,,---,0.00,91.00,VWS V14.00,2013-02-18 15:45:00,
2013-02-18 09:50:00,31.9,26.4,29.48,South,191,4.0,4.0,80,0.00,,---,0.00,91.00,VWS V14.00,2013-02-18 15:50:00,
2013-02-18 09:55:00,31.9,26.4,29.48,NW,309,4.0,4.0,80,0.00,,---,0.00,91.00,VWS V14.00,2013-02-18 15:55:00,
2013-02-18 10:00:00,31.9,26.7,29.49,West,263,2.0,2.0,81,0.00,,---,0.00,106.00,VWS V14.00,2013-02-18 16:00:00,
2013-02-18 10:05:00,31.9,26.7,29.49,West,263,4.0,4.0,81,0.00,,---,0.00,106.00,VWS V14.00,2013-02-18 16:05:00,
2013-02-18 10:11:00,31.9,26.7,29.49,WNW,298,2.0,2.0,81,0.00,,---,0.00,106.00,VWS V14.00,2013-02-18 16:11:00,
2013-02-18 10:16:00,32.1,26.9,29.49,NW,308,1.0,3.0,81,0.00,,---,0.00,106.00,VWS V14.00,2013-02-18 16:16:00,
2013-02-18 10:21:00,32.2,27.0,29.49,West,280,2.0,2.0,81,0.00,,---,0.00,106.00,VWS V14.00,2013-02-18 16:21:00,
2013-02-18 10:26:00,32.2,27.0,29.49,West,275,5.0,5.0,81,0.00,,---,0.00,106.00,VWS V14.00,2013-02-18 16:26:00,
2013-02-18 10:31:00,32.2,27.0,29.49,WSW,254,2.0,3.0,81,0.00,,---,0.00,106.00,VWS V14.00,2013-02-18 16:31:00,
2013-02-18 10:36:00,32.2,27.0,29.49,WSW,257,2.0,2.0,81,0.00,,---,0.00,106.00,VWS V14.00,2013-02-18 16:36:00,
2013-02-18 10:41:00,32.2,27.0,29.49,West,270,5.0,6.0,81,0.00,,---,0.00,106.00,VWS V14.00,2013-02-18 16:41:00,
2013-02-18 10:45:00,32.2,27.0,29.49,WNW,291,3.0,3.0,81,0.00,,---,0.00,106.00,VWS V14.00,2013-02-18 16:45:00,
2013-02-18 10:50:00,32.2,27.0,29.49,WNW,288,3.0,3.0,81,0.00,,---,0.00,106.00,VWS V14.00,2013-02-18 16:50:00,
2013-02-18 10:55:00,32.2,27.0,29.49,WNW,294,5.0,5.0,81,0.00,,---,0.00,106.00,VWS V14.00,2013-02-18 16:55:00,
2013-02-18 11:00:00,32.4,27.8,29.49,West,272,4.0,5.0,83,0.00,,---,0.00,67.00,VWS V14.00,2013-02-18 17:00:00,
2013-02-18 11:05:00,32.4,27.8,29.49,West,271,2.0,3.0,83,0.00,,---,0.00,56.00,VWS V14.00,2013-02-18 17:05:00,
2013-02-18 11:11:00,32.5,27.9,29.49,West,270,1.0,2.0,83,0.00,,---,0.00,55.00,VWS V14.00,2013-02-18 17:11:00,
2013-02-18 11:16:00,32.5,27.9,29.50,WSW,240,1.0,1.0,83,0.00,,---,0.00,53.00,VWS V14.00,2013-02-18 17:16:00,
2013-02-18 11:21:00,32.5,27.9,29.50,West,267,2.0,3.0,83,0.00,,---,0.00,56.00,VWS V14.00,2013-02-18 17:21:00,
2013-02-18 11:26:00,32.7,28.1,29.50,West,281,2.0,4.0,83,0.00,,---,0.00,51.00,VWS V14.00,2013-02-18 17:26:00,
2013-02-18 11:31:00,32.7,28.4,29.50,West,270,3.0,3.0,84,0.00,,---,0.00,53.00,VWS V14.00,2013-02-18 17:31:00,
2013-02-18 11:35:00,32.7,28.4,29.50,NW,316,4.0,4.0,84,0.00,,---,0.00,60.00,VWS V14.00,2013-02-18 17:35:00,
2013-02-18 11:40:00,32.5,27.9,29.50,WNW,282,6.0,6.0,83,0.00,,---,0.00,60.00,VWS V14.00,2013-02-18 17:40:00,
2013-02-18 11:46:00,32.5,27.9,29.50,NW,305,7.0,7.0,83,0.00,,---,0.00,60.00,VWS V14.00,2013-02-18 17:46:00,
2013-02-18 11:51:00,32.5,27.9,29.50,NW,304,8.0,8.0,83,0.00,,---,0.00,42.00,VWS V14.00,2013-02-18 17:51:00,
2013-02-18 11:56:00,32.5,27.9,29.50,WNW,289,9.0,9.0,83,0.00,,---,0.00,42.00,VWS V14.00,2013-02-18 17:56:00,
2013-02-18 12:01:00,30.1,25.3,29.50,WNW,298,5.0,5.0,82,0.00,,---,0.00,53.00,VWS V14.00,2013-02-18 18:01:00,
2013-02-18 12:06:00,30.1,25.3,29.50,WNW,292,4.0,4.0,82,0.00,,---,0.00,91.00,VWS V14.00,2013-02-18 18:06:00,
2013-02-18 12:11:00,29.4,24.6,29.50,WNW,288,8.0,8.0,82,0.00,,---,0.00,91.00,VWS V14.00,2013-02-18 18:11:00,
2013-02-18 12:16:00,29.0,24.2,29.51,NW,306,7.0,7.0,82,0.00,,---,0.00,91.00,VWS V14.00,2013-02-18 18:16:00,
2013-02-18 12:21:00,29.0,24.2,29.51,West,281,8.0,8.0,82,0.00,,---,0.00,72.00,VWS V14.00,2013-02-18 18:21:00,
2013-02-18 12:26:00,28.5,23.7,29.51,WNW,282,6.0,8.0,82,0.00,,---,0.00,72.00,VWS V14.00,2013-02-18 18:26:00,
2013-02-18 12:31:00,28.1,21.2,29.51,West,263,6.0,12.0,75,0.00,,---,0.00,72.00,VWS V14.00,2013-02-18 18:31:00,
2013-02-18 12:36:00,28.1,21.2,29.51,WNW,291,6.0,10.0,75,0.00,,---,0.00,72.00,VWS V14.00,2013-02-18 18:36:00,
2013-02-18 12:41:00,27.8,20.9,29.51,WNW,294,8.0,8.0,75,0.00,,---,0.00,72.00,VWS V14.00,2013-02-18 18:41:00,
2013-02-18 12:46:00,27.8,20.9,29.50,West,265,10.0,10.0,75,0.00,,---,0.00,72.00,VWS V14.00,2013-02-18 18:46:00,
2013-02-18 12:51:00,27.5,20.3,29.50,West,265,4.0,4.0,74,0.00,,---,0.00,72.00,VWS V14.00,2013-02-18 18:51:00,
2013-02-18 12:56:00,27.5,20.3,29.50,West,277,6.0,6.0,74,0.00,,---,0.00,72.00,VWS V14.00,2013-02-18 18:56:00,
2013-02-18 13:01:00,27.5,20.0,29.50,NW,308,11.0,11.0,73,0.00,,---,0.00,72.00,VWS V14.00,2013-02-18 19:01:00,
2013-02-18 13:06:00,27.5,20.0,29.50,NW,320,12.0,13.0,73,0.00,,---,0.00,72.00,VWS V14.00,2013-02-18 19:06:00,
2013-02-18 13:11:00,27.5,20.0,29.50,WNW,287,4.0,8.0,73,0.00,,---,0.00,72.00,VWS V14.00,2013-02-18 19:11:00,
2013-02-18 13:16:00,27.5,20.0,29.51,WNW,296,10.0,10.0,73,0.00,,---,0.00,72.00,VWS V14.00,2013-02-18 19:16:00,
2013-02-18 13:21:00,27.5,20.0,29.51,WNW,299,10.0,10.0,73,0.00,,---,0.00,72.00,VWS V14.00,2013-02-18 19:21:00,
2013-02-18 13:26:00,26.9,19.4,29.51,WNW,291,2.0,2.0,73,0.00,,---,0.00,72.00,VWS V14.00,2013-02-18 19:26:00,
2013-02-18 13:31:00,26.9,18.8,29.52,NW,322,8.0,8.0,71,0.00,,---,0.00,72.00,VWS V14.00,2013-02-18 19:31:00,
2013-02-18 13:36:00,26.6,18.5,29.52,West,275,5.0,5.0,71,0.00,,---,0.00,144.00,VWS V14.00,2013-02-18 19:36:00,
2013-02-18 13:41:00,26.0,17.9,29.52,West,277,5.0,5.0,71,0.00,,---,0.00,144.00,VWS V14.00,2013-02-18 19:41:00,
2013-02-18 13:46:00,25.4,17.3,29.52,WNW,289,2.0,9.0,71,0.00,,---,0.00,144.00,VWS V14.00,2013-02-18 19:46:00,
2013-02-18 13:51:00,25.4,17.3,29.52,West,272,5.0,5.0,71,0.00,,---,0.00,144.00,VWS V14.00,2013-02-18 19:51:00,
2013-02-18 13:56:00,25.4,17.3,29.52,WNW,284,8.0,8.0,71,0.00,,---,0.00,130.00,VWS V14.00,2013-02-18 19:56:00,
2013-02-18 14:01:00,25.1,16.7,29.54,West,281,11.0,11.0,70,0.00,,---,0.00,130.00,VWS V14.00,2013-02-18 20:01:00,
2013-02-18 14:06:00,25.1,16.7,29.54,WNW,294,10.0,10.0,70,0.00,,---,0.00,130.00,VWS V14.00,2013-02-18 20:06:00,
2013-02-18 14:11:00,25.0,16.6,29.54,West,260,11.0,11.0,70,0.00,,---,0.00,130.00,VWS V14.00,2013-02-18 20:11:00,
2013-02-18 14:16:00,24.8,16.1,29.54,NW,322,13.0,13.0,69,0.00,,---,0.00,130.00,VWS V14.00,2013-02-18 20:16:00,
2013-02-18 14:21:00,24.8,16.1,29.54,WNW,298,18.0,18.0,69,0.00,,---,0.00,130.00,VWS V14.00,2013-02-18 20:21:00,
2013-02-18 14:26:00,24.4,15.7,29.54,WNW,292,6.0,6.0,69,0.00,,---,0.00,130.00,VWS V14.00,2013-02-18 20:26:00,
2013-02-18 14:31:00,24.2,15.5,29.56,WNW,298,7.0,18.0,69,0.00,,---,0.00,130.00,VWS V14.00,2013-02-18 20:31:00,
2013-02-18 14:36:00,24.2,15.5,29.56,NW,306,7.0,7.0,69,0.00,,---,0.00,130.00,VWS V14.00,2013-02-18 20:36:00,
2013-02-18 14:41:00,24.2,15.5,29.56,WNW,292,11.0,11.0,69,0.00,,---,0.00,130.00,VWS V14.00,2013-02-18 20:41:00,
2013-02-18 14:46:00,24.2,15.5,29.56,WNW,289,11.0,11.0,69,0.00,,---,0.00,130.00,VWS V14.00,2013-02-18 20:46:00,
2013-02-18 14:51:00,24.2,15.5,29.56,NW,320,10.0,10.0,69,0.00,,---,0.00,130.00,VWS V14.00,2013-02-18 20:51:00,
2013-02-18 14:56:00,23.6,14.9,29.56,NW,325,13.0,13.0,69,0.00,,---,0.00,130.00,VWS V14.00,2013-02-18 20:56:00,
2013-02-18 15:01:00,23.2,14.6,29.57,NW,305,12.0,12.0,69,0.00,,---,0.00,130.00,VWS V14.00,2013-02-18 21:01:00,
2013-02-18 15:06:00,23.0,14.4,29.57,NW,308,8.0,8.0,69,0.00,,---,0.00,116.00,VWS V14.00,2013-02-18 21:06:00,
2013-02-18 15:11:00,23.0,14.4,29.57,WSW,256,3.0,3.0,69,0.00,,---,0.00,116.00,VWS V14.00,2013-02-18 21:11:00,
2013-02-18 15:16:00,23.0,14.4,29.58,WNW,294,8.0,8.0,69,0.00,,---,0.00,116.00,VWS V14.00,2013-02-18 21:16:00,
2013-02-18 15:21:00,22.1,12.1,29.58,NW,309,7.0,16.0,65,0.00,,---,0.00,116.00,VWS V14.00,2013-02-18 21:21:00,
2013-02-18 15:26:00,21.8,11.9,29.58,WNW,301,10.0,10.0,65,0.00,,---,0.00,72.00,VWS V14.00,2013-02-18 21:26:00,
2013-02-18 15:31:00,21.4,11.5,29.59,NW,326,3.0,3.0,65,0.00,,---,0.00,72.00,VWS V14.00,2013-02-18 21:31:00,
2013-02-18 15:36:00,21.1,11.2,29.59,NW,326,8.0,8.0,65,0.00,,---,0.00,72.00,VWS V14.00,2013-02-18 21:36:00,
2013-02-18 15:41:00,21.0,11.1,29.59,WNW,288,6.0,9.0,65,0.00,,---,0.00,72.00,VWS V14.00,2013-02-18 21:41:00,
2013-02-18 15:46:00,21.0,11.1,29.61,West,280,10.0,10.0,65,0.00,,---,0.00,72.00,VWS V14.00,2013-02-18 21:46:00,
2013-02-18 15:51:00,21.0,11.1,29.61,West,278,16.0,17.0,65,0.00,,---,0.00,62.00,VWS V14.00,2013-02-18 21:51:00,
2013-02-18 15:56:00,21.0,11.4,29.61,WNW,298,9.0,9.0,66,0.00,,---,0.00,28.00,VWS V14.00,2013-02-18 21:56:00,
2013-02-18 16:01:00,19.7,10.2,29.61,West,281,12.0,12.0,66,0.00,,---,0.00,28.00,VWS V14.00,2013-02-18 22:01:00,
2013-02-18 16:06:00,19.5,10.0,29.61,WNW,302,14.0,14.0,66,0.00,,---,0.00,28.00,VWS V14.00,2013-02-18 22:06:00,
2013-02-18 16:11:00,19.4,9.9,29.61,WNW,292,11.0,11.0,66,0.00,,---,0.00,28.00,VWS V14.00,2013-02-18 22:11:00,
2013-02-18 16:16:00,19.2,9.7,29.62,NW,318,8.0,8.0,66,0.00,,---,0.00,30.00,VWS V14.00,2013-02-18 22:16:00,
2013-02-18 16:21:00,19.2,9.7,29.62,NW,305,12.0,12.0,66,0.00,,---,0.00,30.00,VWS V14.00,2013-02-18 22:21:00,
2013-02-18 16:26:00,19.2,9.7,29.62,NW,304,9.0,9.0,66,0.00,,---,0.00,30.00,VWS V14.00,2013-02-18 22:26:00,
2013-02-18 16:31:00,18.9,9.4,29.62,WNW,296,8.0,8.0,66,0.00,,---,0.00,21.00,VWS V14.00,2013-02-18 22:31:00,
2013-02-18 16:36:00,18.8,9.3,29.62,West,272,9.0,9.0,66,0.00,,---,0.00,21.00,VWS V14.00,2013-02-18 22:36:00,
2013-02-18 16:41:00,18.4,9.0,29.62,NW,305,11.0,11.0,66,0.00,,---,0.00,21.00,VWS V14.00,2013-02-18 22:41:00,
2013-02-18 16:46:00,18.1,8.7,29.63,WNW,296,10.0,10.0,66,0.00,,---,0.00,21.00,VWS V14.00,2013-02-18 22:46:00,
2013-02-18 16:52:00,18.0,8.6,29.63,WNW,294,7.0,7.0,66,0.00,,---,0.00,21.00,VWS V14.00,2013-02-18 22:52:00,
2013-02-18 16:57:00,18.0,8.6,29.63,NNW,329,7.0,7.0,66,0.00,,---,0.00,21.00,VWS V14.00,2013-02-18 22:57:00,
2013-02-18 17:02:00,18.0,8.6,29.64,West,272,7.0,10.0,66,0.00,,---,0.00,9.00,VWS V14.00,2013-02-18 23:02:00,
2013-02-18 17:07:00,17.7,8.3,29.64,NW,312,3.0,3.0,66,0.00,,---,0.00,9.00,VWS V14.00,2013-02-18 23:07:00,
2013-02-18 17:12:00,17.7,8.3,29.64,WNW,288,10.0,10.0,66,0.00,,---,0.00,9.00,VWS V14.00,2013-02-18 23:12:00,
2013-02-18 17:17:00,17.2,8.1,29.64,WNW,302,8.0,14.0,67,0.00,,---,0.00,0.00,VWS V14.00,2013-02-18 23:17:00,
2013-02-18 17:22:00,16.9,7.8,29.64,West,274,19.0,19.0,67,0.00,,---,0.00,0.00,VWS V14.00,2013-02-18 23:22:00,
2013-02-18 17:27:00,16.7,7.7,29.64,NW,316,8.0,20.0,67,0.00,,---,0.00,0.00,VWS V14.00,2013-02-18 23:27:00,
2013-02-18 17:32:00,16.5,7.5,29.65,WNW,302,17.0,19.0,67,0.00,,---,0.00,0.00,VWS V14.00,2013-02-18 23:32:00,
2013-02-18 17:37:00,16.5,7.8,29.65,WNW,292,10.0,11.0,68,0.00,,---,0.00,0.00,VWS V14.00,2013-02-18 23:37:00,
2013-02-18 17:42:00,16.4,7.4,29.65,WNW,299,16.0,16.0,67,0.00,,---,0.00,0.00,VWS V14.00,2013-02-18 23:42:00,
2013-02-18 17:47:00,16.1,7.1,29.65,NNW,328,7.0,7.0,67,0.00,,---,0.00,0.00,VWS V14.00,2013-02-18 23:47:00,
2013-02-18 17:52:00,16.1,7.4,29.65,NW,311,14.0,14.0,68,0.00,,---,0.00,0.00,VWS V14.00,2013-02-18 23:52:00,
2013-02-18 17:57:00,15.6,6.9,29.65,NW,319,13.0,13.0,68,0.00,,---,0.00,0.00,VWS V14.00,2013-02-18 23:57:00,
2013-02-18 18:02:00,15.6,6.9,29.66,NW,305,5.0,5.0,68,0.00,,---,0.00,0.00,VWS V14.00,2013-02-19 00:02:00,
2013-02-18 18:07:00,15.4,6.7,29.66,WNW,282,10.0,10.0,68,0.00,,---,0.00,0.00,VWS V14.00,2013-02-19 00:07:00,
2013-02-18 18:12:00,15.2,6.6,29.66,WNW,301,6.0,13.0,68,0.00,,---,0.00,0.00,VWS V14.00,2013-02-19 00:12:00,
2013-02-18 18:17:00,15.2,6.6,29.66,WNW,291,8.0,8.0,68,0.00,,---,0.00,0.00,VWS V14.00,2013-02-19 00:17:00,
2013-02-18 18:22:00,15.2,6.6,29.66,NW,311,7.0,15.0,68,0.00,,---,0.00,0.00,VWS V14.00,2013-02-19 00:22:00,
2013-02-18 18:27:00,15.2,6.6,29.66,NW,312,12.0,12.0,68,0.00,,---,0.00,0.00,VWS V14.00,2013-02-19 00:27:00,
2013-02-18 18:32:00,15.1,6.5,29.67,NW,312,8.0,8.0,68,0.00,,---,0.00,0.00,VWS V14.00,2013-02-19 00:32:00,
2013-02-18 18:37:00,15.1,6.5,29.67,WNW,302,14.0,14.0,68,0.00,,---,0.00,0.00,VWS V14.00,2013-02-19 00:37:00,
2013-02-18 18:42:00,15.1,6.5,29.67,WNW,282,6.0,6.0,68,0.00,,---,0.00,0.00,VWS V14.00,2013-02-19 00:42:00,
2013-02-18 18:47:00,14.6,6.0,29.67,West,281,11.0,11.0,68,0.00,,---,0.00,0.00,VWS V14.00,2013-02-19 00:47:00,
2013-02-18 18:52:00,14.6,6.0,29.67,WNW,292,6.0,6.0,68,0.00,,---,0.00,0.00,VWS V14.00,2013-02-19 00:52:00,
2013-02-18 18:57:00,14.3,5.7,29.67,WNW,289,12.0,12.0,68,0.00,,---,0.00,0.00,VWS V14.00,2013-02-19 00:57:00,
2013-02-18 19:02:00,14.1,5.5,29.68,West,265,5.0,6.0,68,0.00,,---,0.00,0.00,VWS V14.00,2013-02-19 01:02:00,
2013-02-18 19:07:00,14.1,5.5,29.68,NW,305,13.0,13.0,68,0.00,,---,0.00,0.00,VWS V14.00,2013-02-19 01:07:00,
2013-02-18 19:12:00,14.1,5.2,29.68,West,274,5.0,12.0,67,0.00,,---,0.00,0.00,VWS V14.00,2013-02-19 01:12:00,
2013-02-18 19:17:00,14.1,5.2,29.68,WNW,287,6.0,6.0,67,0.00,,---,0.00,0.00,VWS V14.00,2013-02-19 01:17:00,
2013-02-18 19:22:00,13.8,4.9,29.68,NW,311,11.0,11.0,67,0.00,,---,0.00,0.00,VWS V14.00,2013-02-19 01:22:00,
2013-02-18 19:27:00,13.8,4.9,29.68,West,272,8.0,8.0,67,0.00,,---,0.00,0.00,VWS V14.00,2013-02-19 01:27:00,
2013-02-18 19:32:00,13.8,4.9,29.69,WNW,298,14.0,14.0,67,0.00,,---,0.00,0.00,VWS V14.00,2013-02-19 01:32:00,
2013-02-18 19:37:00,13.6,5.3,29.69,WNW,292,12.0,12.0,69,0.00,,---,0.00,0.00,VWS V14.00,2013-02-19 01:37:00,
2013-02-18 19:42:00,13.5,5.2,29.69,WNW,292,7.0,8.0,69,0.00,,---,0.00,0.00,VWS V14.00,2013-02-19 01:42:00,
2013-02-18 19:47:00,13.5,5.6,29.69,WNW,282,7.0,7.0,70,0.00,,---,0.00,0.00,VWS V14.00,2013-02-19 01:47:00,
2013-02-18 19:52:00,12.9,5.0,29.69,WNW,294,8.0,11.0,70,0.00,,---,0.00,0.00,VWS V14.00,2013-02-19 01:52:00,
2013-02-18 19:57:00,12.4,4.5,29.69,NW,309,11.0,11.0,70,0.00,,---,0.00,0.00,VWS V14.00,2013-02-19 01:57:00,
2013-02-18 20:02:00,12.3,4.4,29.70,WNW,282,6.0,11.0,70,0.00,,---,0.00,0.00,VWS V14.00,2013-02-19 02:02:00,
2013-02-18 20:07:00,12.3,4.4,29.70,NW,322,13.0,13.0,70,0.00,,---,0.00,0.00,VWS V14.00,2013-02-19 02:07:00,
2013-02-18 20:12:00,11.9,4.0,29.70,West,274,10.0,10.0,70,0.00,,---,0.00,0.00,VWS V14.00,2013-02-19 02:12:00,
2013-02-18 20:17:00,11.6,3.7,29.70,WNW,288,12.0,12.0,70,0.00,,---,0.00,0.00,VWS V14.00,2013-02-19 02:17:00,
2013-02-18 20:22:00,11.6,3.7,29.70,West,260,7.0,7.0,70,0.00,,---,0.00,0.00,VWS V14.00,2013-02-19 02:22:00,
2013-02-18 20:27:00,11.6,3.7,29.70,WNW,289,3.0,7.0,70,0.00,,---,0.00,0.00,VWS V14.00,2013-02-19 02:27:00,
2013-02-18 20:32:00,11.6,3.7,29.71,WSW,251,3.0,6.0,70,0.00,,---,0.00,0.00,VWS V14.00,2013-02-19 02:32:00,
2013-02-18 20:37:00,11.4,3.5,29.71,WNW,294,10.0,11.0,70,0.00,,---,0.00,0.00,VWS V14.00,2013-02-19 02:37:00,
2013-02-18 20:42:00,11.4,3.5,29.71,WNW,285,7.0,7.0,70,0.00,,---,0.00,0.00,VWS V14.00,2013-02-19 02:42:00,
2013-02-18 20:47:00,11.4,4.4,29.71,WNW,294,10.0,13.0,73,0.00,,---,0.00,0.00,VWS V14.00,2013-02-19 02:47:00,
2013-02-18 20:52:00,11.2,4.5,29.71,NW,316,6.0,8.0,74,0.00,,---,0.00,0.00,VWS V14.00,2013-02-19 02:52:00,
2013-02-18 20:57:00,11.2,4.5,29.71,WNW,296,5.0,5.0,74,0.00,,---,0.00,0.00,VWS V14.00,2013-02-19 02:57:00,
2013-02-18 21:02:00,11.1,4.4,29.71,WNW,289,11.0,11.0,74,0.00,,---,0.00,0.00,VWS V14.00,2013-02-19 03:02:00,
2013-02-18 21:07:00,11.1,4.4,29.71,WNW,298,5.0,5.0,74,0.00,,---,0.00,0.00,VWS V14.00,2013-02-19 03:07:00,
2013-02-18 21:12:00,10.9,4.2,29.71,WNW,299,7.0,7.0,74,0.00,,---,0.00,0.00,VWS V14.00,2013-02-19 03:12:00,
2013-02-18 21:17:00,10.9,4.2,29.71,WNW,302,7.0,7.0,74,0.00,,---,0.00,0.00,VWS V14.00,2013-02-19 03:17:00,
2013-02-18 21:22:00,10.7,4.1,29.71,NW,315,3.0,3.0,74,0.00,,---,0.00,0.00,VWS V14.00,2013-02-19 03:22:00,
2013-02-18 21:28:00,10.7,4.1,29.71,WNW,299,5.0,5.0,74,0.00,,---,0.00,0.00,VWS V14.00,2013-02-19 03:28:00,
2013-02-18 21:33:00,10.7,4.1,29.71,NW,305,5.0,5.0,74,0.00,,---,0.00,0.00,VWS V14.00,2013-02-19 03:33:00,
2013-02-18 21:38:00,10.9,4.2,29.71,WNW,298,4.0,4.0,74,0.00,,---,0.00,0.00,VWS V14.00,2013-02-19 03:38:00,
2013-02-18 21:43:00,10.9,4.2,29.71,West,278,11.0,11.0,74,0.00,,---,0.00,0.00,VWS V14.00,2013-02-19 03:43:00,
2013-02-18 21:48:00,11.1,4.4,29.71,NW,313,7.0,7.0,74,0.00,,---,0.00,0.00,VWS V14.00,2013-02-19 03:48:00,
2013-02-18 21:53:00,11.4,4.7,29.71,NW,315,10.0,12.0,74,0.00,,---,0.00,0.00,VWS V14.00,2013-02-19 03:53:00,
2013-02-18 21:58:00,11.6,5.5,29.71,NW,311,9.0,9.0,76,0.00,,---,0.00,0.00,VWS V14.00,2013-02-19 03:58:00,
2013-02-18 22:03:00,11.6,5.5,29.72,WNW,287,6.0,7.0,76,0.00,,---,0.00,0.00,VWS V14.00,2013-02-19 04:03:00,
2013-02-18 22:08:00,11.6,5.5,29.72,North,0,3.0,3.0,76,0.00,,---,0.00,0.00,VWS V14.00,2013-02-19 04:08:00,
2013-02-18 22:13:00,10.9,4.2,29.72,WNW,292,18.0,18.0,74,0.00,,---,0.00,0.00,VWS V14.00,2013-02-19 04:13:00,
2013-02-18 22:18:00,10.7,4.1,29.72,WNW,298,7.0,12.0,74,0.00,,---,0.00,0.00,VWS V14.00,2013-02-19 04:18:00,
2013-02-18 22:23:00,10.7,4.1,29.72,WNW,292,5.0,16.0,74,0.00,,---,0.00,0.00,VWS V14.00,2013-02-19 04:23:00,
2013-02-18 22:28:00,10.7,3.8,29.72,NW,325,10.0,10.0,73,0.00,,---,0.00,0.00,VWS V14.00,2013-02-19 04:28:00,
2013-02-18 22:33:00,10.5,3.6,29.72,WNW,291,13.0,17.0,73,0.00,,---,0.00,0.00,VWS V14.00,2013-02-19 04:33:00,
2013-02-18 22:38:00,10.5,3.6,29.72,NW,305,12.0,12.0,73,0.00,,---,0.00,0.00,VWS V14.00,2013-02-19 04:38:00,
2013-02-18 22:43:00,10.5,3.6,29.72,NW,308,13.0,13.0,73,0.00,,---,0.00,0.00,VWS V14.00,2013-02-19 04:43:00,
2013-02-18 22:48:00,10.5,2.7,29.72,WNW,292,8.0,14.0,70,0.00,,---,0.00,0.00,VWS V14.00,2013-02-19 04:48:00,
2013-02-18 22:53:00,10.5,2.7,29.72,WNW,291,10.0,10.0,70,0.00,,---,0.00,0.00,VWS V14.00,2013-02-19 04:53:00,
2013-02-18 22:58:00,10.5,2.7,29.72,WNW,294,19.0,19.0,70,0.00,,---,0.00,0.00,VWS V14.00,2013-02-19 04:58:00,
2013-02-18 23:00:00,10.5,2.7,29.73,WNW,294,19.0,19.0,70,0.00,,---,0.00,0.00,VWS V14.00,2013-02-19 05:00:00,
2013-02-18 23:01:00,10.0,1.9,29.73,WNW,298,13.0,19.0,69,0.00,,---,0.00,0.00,VWS V14.00,2013-02-19 05:01:00,
2013-02-18 23:06:00,10.0,1.9,29.73,NW,326,8.0,8.0,69,0.00,,---,0.00,0.00,VWS V14.00,2013-02-19 05:06:00,
2013-02-18 23:11:00,9.9,1.8,29.73,NW,304,5.0,9.0,69,0.00,,---,0.00,0.00,VWS V14.00,2013-02-19 05:11:00,
2013-02-18 23:16:00,9.9,1.8,29.74,NNW,333,11.0,13.0,69,0.00,,---,0.00,0.00,VWS V14.00,2013-02-19 05:16:00,
2013-02-18 23:21:00,9.7,1.6,29.74,WNW,298,18.0,18.0,69,0.00,,---,0.00,0.00,VWS V14.00,2013-02-19 05:21:00,
2013-02-18 23:26:00,9.5,1.4,29.74,WNW,294,7.0,10.0,69,0.00,,---,0.00,0.00,VWS V14.00,2013-02-19 05:26:00,
2013-02-18 23:31:00,9.5,0.8,29.74,NW,306,22.0,22.0,67,0.00,,---,0.00,0.00,VWS V14.00,2013-02-19 05:31:00,
2013-02-18 23:36:00,9.5,0.8,29.74,NNW,329,13.0,13.0,67,0.00,,---,0.00,0.00,VWS V14.00,2013-02-19 05:36:00,
2013-02-18 23:41:00,9.5,0.8,29.74,NW,323,7.0,8.0,67,0.00,,---,0.00,0.00,VWS V14.00,2013-02-19 05:41:00,
2013-02-18 23:46:00,9.3,0.6,29.75,WNW,299,6.0,6.0,67,0.00,,---,0.00,0.00,VWS V14.00,2013-02-19 05:46:00,
2013-02-18 23:51:00,9.2,0.5,29.75,WNW,298,7.0,22.0,67,0.00,,---,0.00,0.00,VWS V14.00,2013-02-19 05:51:00,
2013-02-18 23:56:00,9.2,0.5,29.75,WNW,301,15.0,16.0,67,0.00,,---,0.00,0.00,VWS V14.00,2013-02-19 05:56:00,